Regional Weather Roundup
Issued by NWS

Home | Current Version | Previous Version | Text Only | Print | Product List | Glossary On
Versions: 1 2 3 4 5 6 7 8 9 10 11 12 13 14 15 16 17 18 19 20 21 22 23 24 25 26 27 28 29 30 31 32 33 34 35 36 37 38 39 40 41 42 43 44 45 46 47 48 49 50
827
ASUS44 KJAN 311203
RWRMS

MISSISSIPPI HOURLY WEATHER ROUNDUP
NATIONAL WEATHER SERVICE JACKSON MS
700 AM CDT SUN AUG 31 2014

NOTE: "FAIR: INDICATES FEW OR NO CLOUDS BELOW 12,000 FEET WITH NO
SIGNIFICANT WEATHER AND/OR OBSTRUCTIONS TO VISIBILITY.

MSZ001>002-007>008-010>013-018>021-025>028-034>036-311300-
NORTHWEST MISSISSIPPI

CITY           SKY/WX    TMP DP  RH WIND       PRES   REMARKS
CLARKSDALE     CLOUDY    73  73 100 S10       30.04R
CLEVELAND      CLOUDY    73  73  99 S9        30.04R
GREENWOOD      CLOUDY    74  71  91 S6        30.06R
6HR MIN TEMP:  73; 6HR MAX TEMP:  74; 6HR PCP:  0.01;

GREENVILLE     CLOUDY    74  72  93 S8        30.04R
6HR MIN TEMP:  74; 6HR MAX TEMP:  75;

GRENADA        FAIR      72  70  94 S6        30.06S
OLIVE BRANCH   CLOUDY    72 N/A N/A S8        30.02R
OXFORD         CLOUDY    72  70  94 SW7       30.07R
TUNICA         HVY RAIN  73  72  94 SW12      30.03R
$$

MSZ003>006-009-014>017-022>024-029>033-037>039-311300-
NORTHEAST MISSISSIPPI

CITY           SKY/WX    TMP DP  RH WIND       PRES   REMARKS
BELMONT        PTSUNNY   71  70  96 S10       30.09R
COLUMBUS AFB   CLOUDY    73  73  99 S2        30.10R
6HR MIN TEMP:  72; 6HR MAX TEMP:  73;

CORINTH        CLOUDY    73  70  88 S8        30.05S
GOLDN TRIANGLE MOCLDY    72  68  88 S7        30.10R
STARKVILLE     HVY RAIN  70  68  94 CALM      30.10R
TUPELO         CLOUDY    73  70  90 S12       30.06S
6HR MIN TEMP:  73; 6HR MAX TEMP:  73;

$$

MSZ040-058-311300-
CENTRAL MISSISSIPPI

CITY           SKY/WX    TMP DP  RH WIND       PRES   REMARKS
JACKSON INTL   LGT RAIN  74  72  93 S3        30.09R
6HR MIN TEMP:  73; 6HR MAX TEMP:  74; 6HR PCP: TRACE;

JACKSON HAWKNS LGT RAIN  74  71  91 SE6       30.09R FOG
6HR MIN TEMP:  74; 6HR MAX TEMP:  74; 6HR PCP:  0.01;

MERIDIAN KEY   CLOUDY    74  72  93 CALM      30.11R
6HR MIN TEMP:  72; 6HR MAX TEMP:  74;

MERIDIAN NAS   CLOUDY    73  71  93 CALM      30.11R
6HR MIN TEMP:  72; 6HR MAX TEMP:  73;

RAYMOND        FAIR      73  68  83 CALM      30.09R
VICKSBURG      CLOUDY    74  71  91 S3        30.07R
6HR MIN TEMP:  73; 6HR MAX TEMP:  74;

$$

MSZ059>079-311300-
SOUTH MISSISSIPPI

CITY           SKY/WX    TMP DP  RH WIND       PRES   REMARKS
BROOKHAVEN     FAIR      72  72 100 CALM      30.11S FOG
HATTIESBURG    CLOUDY    75  73  93 CALM      30.10R
6HR MIN TEMP:  74; 6HR MAX TEMP:  75;

MCCOMB         CLOUDY    73  71  93 CALM      30.09R
6HR MIN TEMP:  72; 6HR MAX TEMP:  73;

NATCHEZ        CLOUDY    73  70  88 SE6       30.08R
6HR MIN TEMP:  73; 6HR MAX TEMP:  73;

PINE BELT      CLOUDY   N/A N/A N/A CALM      30.11R
$$

MSZ080>082-311300-
COASTAL MISSISSIPPI

CITY           SKY/WX    TMP DP  RH WIND       PRES   REMARKS
BAY ST LOUIS   CLEAR    N/A N/A N/A CALM      30.08
BILOXI         PTCLDY    83  76  81 S6        30.08R HX  91
6HR MIN TEMP:  76; 6HR MAX TEMP:  83;

PASCAGOULA     MOCLDY    73  73 100 CALM      30.09R FOG
6HR MIN TEMP:  73; 6HR MAX TEMP:  75;

GULFPORT       CLOUDY    81  78  91 CALM      30.07R
6HR MIN TEMP:  75; 6HR MAX TEMP:  82;

$$



USA.gov is the U.S. government's official web portal to all federal, state and local government web resources and services.